Powrót do katalogu

STARLINK-34409

AktywnyŁącznośćVLEO
NORAD 64485·PAYLOAD·🇺🇸 United States

Wystrzelony Jun 23, 2025 z Cape Canaveral Space Force Station

Loading…

Następne Przeloty (najbliższe 24 godziny)

TLE

ŚwieżeSource: CelesTrak SupGP

Epoka: Sep 15, 2026, 02:58 UTC

1 64485C 25133P   26258.12409722  .00046075  00000+0  13602-2 0  2584
2 64485  53.1582 314.4984 0001252  93.0578 331.5935 15.34393342    15

Śledź STARLINK-34409 w czasie rzeczywistym z AllMySat

Download on the App Store